Location: Clyde
(45.1830°S, 169.3170°E)
Time: 09:49:21
(UTC+12:00)

BREEZE-M DEB (TANK) - Pass Details

Date: 14 May 2021
Orbit: 582 x 17136 km, 49.5° (Epoch: 13 June)

Event Time Altitude Azimuth Distance (km) Brightness Sun altitude
Rises 20:01:46 0° 284° (WNW) 6,373 9.4 -27.6°
Reaches altitude 10° 20:07:17 10° 281° (W) 3,947 8.0 -28.6°
Enters shadow 20:14:28 62° 225° (SW) 904 3.9 -29.8°
